Location: Clarks Summit,Pa.
(41.5000°N, 75.6000°W)
Time: 02:29:56
(UTC-05:00)

Envisat - Pass Details

Date: 05 December 2021
Orbit: 764 x 766 km, 98.2° (Epoch: 18 January)

Event Time Altitude Azimuth Distance (km) Brightness Sun altitude
Rises 06:35:44 0° 354° (N) 3,242 5.9 -7.2°
Reaches altitude 10° 06:39:03 10° 332° (NNW) 2,310 5.0 -6.6°
Maximum altitude 06:41:44 15° 299° (WNW) 2,003 4.5 -6.1°
Drops below altitude 10° 06:44:25 10° 267° (W) 2,302 4.9 -5.7°
Sets 06:47:43 0° 244° (WSW) 3,222 5.9 -5.1°
